Time,TemperatureF,DewpointF,PressureIn,WindDirection,WindDirectionDegrees,WindSpeedMPH,WindSpeedGustMPH,Humidity,HourlyPrecipIn,Conditions,Clouds,dailyrainin,SoftwareType,DateUTC
2013-04-25 00:02:00,43.9,21.1,29.83,SW,234,0.0,0.0,40,0.00,,---,0.00,VWS V14.01,2013-04-25 07:02:00,
2013-04-25 00:08:00,43.7,21.0,29.83,SW,234,0.0,0.0,40,0.00,,---,0.00,VWS V14.01,2013-04-25 07:08:00,
2013-04-25 00:14:00,43.5,20.8,29.83,SW,235,0.0,0.0,40,0.00,,---,0.00,VWS V14.01,2013-04-25 07:14:00,
2013-04-25 00:20:00,43.5,20.8,29.83,SW,234,0.0,0.0,40,0.00,,---,0.00,VWS V14.01,2013-04-25 07:20:00,
2013-04-25 00:26:00,43.5,21.4,29.83,SW,234,0.0,0.0,41,0.00,,---,0.00,VWS V14.01,2013-04-25 07:26:00,
2013-04-25 00:32:00,43.3,21.2,29.83,SW,234,0.0,0.0,41,0.00,,---,0.00,VWS V14.01,2013-04-25 07:32:00,
2013-04-25 00:38:00,43.2,21.1,29.83,SW,235,0.0,0.0,41,0.00,,---,0.00,VWS V14.01,2013-04-25 07:38:00,
2013-04-25 00:44:00,43.0,21.5,29.83,SW,234,0.0,0.0,42,0.00,,---,0.00,VWS V14.01,2013-04-25 07:44:00,
2013-04-25 00:50:00,42.8,21.3,29.83,SW,234,0.0,0.0,42,0.00,,---,0.00,VWS V14.01,2013-04-25 07:50:00,
2013-04-25 00:56:00,42.4,21.5,29.83,SW,234,0.0,0.0,43,0.00,,---,0.00,VWS V14.01,2013-04-25 07:56:00,
2013-04-25 01:03:00,42.4,22.1,29.83,SW,234,0.0,0.0,44,0.00,,---,0.00,VWS V14.01,2013-04-25 08:03:00,
2013-04-25 01:08:00,42.3,21.9,29.83,SW,234,0.0,0.0,44,0.00,,---,0.00,VWS V14.01,2013-04-25 08:08:00,
2013-04-25 01:14:00,42.1,21.8,29.83,SW,234,0.0,0.0,44,0.00,,---,0.00,VWS V14.01,2013-04-25 08:14:00,
2013-04-25 01:20:00,42.1,22.3,29.83,SW,234,0.0,0.0,45,0.00,,---,0.00,VWS V14.01,2013-04-25 08:20:00,
2013-04-25 01:26:00,41.9,22.1,29.83,SW,234,0.0,0.0,45,0.00,,---,0.00,VWS V14.01,2013-04-25 08:26:00,
2013-04-25 01:32:00,41.7,22.0,29.83,SW,234,0.0,0.0,45,0.00,,---,0.00,VWS V14.01,2013-04-25 08:32:00,
2013-04-25 01:38:00,41.5,21.8,29.83,SW,234,0.0,0.0,45,0.00,,---,0.00,VWS V14.01,2013-04-25 08:38:00,
2013-04-25 01:44:00,41.5,22.3,29.83,SW,234,0.0,0.0,46,0.00,,---,0.00,VWS V14.01,2013-04-25 08:44:00,
2013-04-25 01:50:00,41.4,22.7,29.83,SW,235,0.0,0.0,47,0.00,,---,0.00,VWS V14.01,2013-04-25 08:50:00,
2013-04-25 01:56:00,41.4,22.7,29.83,SW,234,0.0,0.0,47,0.00,,---,0.00,VWS V14.01,2013-04-25 08:56:00,
2013-04-25 02:02:00,41.2,23.0,29.83,SW,234,0.0,0.0,48,0.00,,---,0.00,VWS V14.01,2013-04-25 09:02:00,
2013-04-25 02:08:00,41.0,22.8,29.80,SW,235,0.0,0.0,48,0.00,,---,0.00,VWS V14.01,2013-04-25 09:08:00,
2013-04-25 02:14:00,40.8,23.1,29.80,SW,234,0.0,0.0,49,0.00,,---,0.00,VWS V14.01,2013-04-25 09:14:00,
2013-04-25 02:20:00,40.5,22.8,29.80,SW,234,0.0,0.0,49,0.00,,---,0.00,VWS V14.01,2013-04-25 09:20:00,
2013-04-25 02:27:00,40.5,23.3,29.80,SW,234,0.0,0.0,50,0.00,,---,0.00,VWS V14.01,2013-04-25 09:27:00,
2013-04-25 02:32:00,40.3,23.1,29.80,SW,234,0.0,0.0,50,0.00,,---,0.00,VWS V14.01,2013-04-25 09:32:00,
2013-04-25 02:38:00,40.3,23.6,29.80,SW,234,0.0,0.0,51,0.00,,---,0.00,VWS V14.01,2013-04-25 09:38:00,
2013-04-25 02:44:00,40.3,23.6,29.80,SW,234,0.0,0.0,51,0.00,,---,0.00,VWS V14.01,2013-04-25 09:44:00,
2013-04-25 02:51:00,40.1,23.4,29.80,SW,234,0.0,0.0,51,0.00,,---,0.00,VWS V14.01,2013-04-25 09:51:00,
2013-04-25 02:56:00,39.9,23.3,29.80,SW,234,0.0,0.0,51,0.00,,---,0.00,VWS V14.01,2013-04-25 09:56:00,
2013-04-25 03:02:00,39.9,23.7,29.80,SW,234,0.0,0.0,52,0.00,,---,0.00,VWS V14.01,2013-04-25 10:02:00,
2013-04-25 03:08:00,39.7,23.6,29.80,SW,234,0.0,0.0,52,0.00,,---,0.00,VWS V14.01,2013-04-25 10:08:00,
2013-04-25 03:14:00,39.7,23.6,29.80,SW,234,0.0,0.0,52,0.00,,---,0.00,VWS V14.01,2013-04-25 10:14:00,
2013-04-25 03:20:00,39.7,24.0,29.80,SW,234,0.0,0.0,53,0.00,,---,0.00,VWS V14.01,2013-04-25 10:20:00,
2013-04-25 03:26:00,39.6,23.9,29.80,SW,235,0.0,0.0,53,0.00,,---,0.00,VWS V14.01,2013-04-25 10:26:00,
2013-04-25 03:32:00,39.4,23.7,29.80,SW,234,0.0,0.0,53,0.00,,---,0.00,VWS V14.01,2013-04-25 10:32:00,
2013-04-25 03:38:00,39.4,23.7,29.80,SW,234,0.0,0.0,53,0.00,,---,0.00,VWS V14.01,2013-04-25 10:38:00,
2013-04-25 03:44:00,39.2,24.0,29.80,SW,234,0.0,0.0,54,0.00,,---,0.00,VWS V14.01,2013-04-25 10:44:00,
2013-04-25 03:50:00,38.8,23.6,29.80,SW,234,0.0,0.0,54,0.00,,---,0.00,VWS V14.01,2013-04-25 10:50:00,
2013-04-25 03:56:00,38.8,24.1,29.80,SW,235,0.0,0.0,55,0.00,,---,0.00,VWS V14.01,2013-04-25 10:56:00,
2013-04-25 04:02:00,38.8,24.1,29.80,SW,234,0.0,0.0,55,0.00,,---,0.00,VWS V14.01,2013-04-25 11:02:00,
2013-04-25 04:08:00,38.8,24.1,29.80,SW,234,0.0,0.0,55,0.00,,---,0.00,VWS V14.01,2013-04-25 11:08:00,
2013-04-25 04:15:00,38.7,23.9,29.80,SW,234,0.0,0.0,55,0.00,,---,0.00,VWS V14.01,2013-04-25 11:15:00,
2013-04-25 04:20:00,38.5,23.7,29.80,SW,234,0.0,0.0,55,0.00,,---,0.00,VWS V14.01,2013-04-25 11:20:00,
2013-04-25 04:26:00,38.5,24.2,29.80,SW,234,0.0,0.0,56,0.00,,---,0.00,VWS V14.01,2013-04-25 11:26:00,
2013-04-25 04:33:00,38.5,24.2,29.80,SW,234,0.0,0.0,56,0.00,,---,0.00,VWS V14.01,2013-04-25 11:33:00,
2013-04-25 04:38:00,38.5,24.2,29.80,SW,234,0.0,0.0,56,0.00,,---,0.00,VWS V14.01,2013-04-25 11:38:00,
2013-04-25 04:45:00,38.5,24.2,29.80,SW,234,0.0,0.0,56,0.00,,---,0.00,VWS V14.01,2013-04-25 11:45:00,
2013-04-25 04:50:00,38.3,24.0,29.80,SW,234,0.0,0.0,56,0.00,,---,0.00,VWS V14.01,2013-04-25 11:50:00,
2013-04-25 04:56:00,37.9,23.7,29.80,SW,234,0.0,0.0,56,0.00,,---,0.00,VWS V14.01,2013-04-25 11:56:00,
2013-04-25 05:02:00,37.8,23.5,29.80,SW,234,0.0,0.0,56,0.00,,---,0.00,VWS V14.01,2013-04-25 12:02:00,
2013-04-25 05:08:00,37.8,23.9,29.80,SW,234,0.0,0.0,57,0.00,,---,0.00,VWS V14.01,2013-04-25 12:08:00,
2013-04-25 05:14:00,37.9,24.5,29.80,SW,235,0.0,0.0,58,0.00,,---,0.00,VWS V14.01,2013-04-25 12:14:00,
2013-04-25 05:20:00,37.8,24.3,29.80,SW,234,0.0,0.0,58,0.00,,---,0.00,VWS V14.01,2013-04-25 12:20:00,
2013-04-25 05:26:00,37.6,24.2,29.80,SW,234,0.0,0.0,58,0.00,,---,0.00,VWS V14.01,2013-04-25 12:26:00,
2013-04-25 05:32:00,37.8,24.3,29.80,SW,234,0.0,0.0,58,0.00,,---,0.00,VWS V14.01,2013-04-25 12:32:00,
2013-04-25 05:38:00,37.8,24.7,29.80,SW,234,0.0,0.0,59,0.00,,---,0.00,VWS V14.01,2013-04-25 12:38:00,
2013-04-25 05:44:00,37.4,24.0,29.80,SW,234,0.0,0.0,58,0.00,,---,0.00,VWS V14.01,2013-04-25 12:44:00,
2013-04-25 05:50:00,37.2,23.8,29.80,SW,234,0.0,0.0,58,0.00,,---,0.00,VWS V14.01,2013-04-25 12:50:00,
2013-04-25 05:56:00,37.0,23.6,29.80,SW,234,0.0,0.0,58,0.00,,---,0.00,VWS V14.01,2013-04-25 12:56:00,
2013-04-25 06:02:00,37.0,23.6,29.80,SW,234,0.0,0.0,58,0.00,,---,0.00,VWS V14.01,2013-04-25 13:02:00,
2013-04-25 06:08:00,36.9,23.5,29.80,SW,234,0.0,0.0,58,0.00,,---,0.00,VWS V14.01,2013-04-25 13:08:00,
2013-04-25 06:14:00,36.9,23.5,29.80,SW,234,0.0,0.0,58,0.00,,---,0.00,VWS V14.01,2013-04-25 13:14:00,
2013-04-25 06:20:00,36.9,23.5,29.80,SW,234,0.0,0.0,58,0.00,,---,0.00,VWS V14.01,2013-04-25 13:20:00,
2013-04-25 06:26:00,36.9,23.5,29.80,SW,234,0.0,0.0,58,0.00,,---,0.00,VWS V14.01,2013-04-25 13:26:00,
2013-04-25 06:32:00,36.9,23.5,29.80,SW,234,0.0,0.0,58,0.00,,---,0.00,VWS V14.01,2013-04-25 13:32:00,
2013-04-25 06:38:00,36.9,23.5,29.83,SW,234,0.0,0.0,58,0.00,,---,0.00,VWS V14.01,2013-04-25 13:38:00,
2013-04-25 06:44:00,36.7,23.3,29.83,SW,234,0.0,0.0,58,0.00,,---,0.00,VWS V14.01,2013-04-25 13:44:00,
2013-04-25 06:50:00,36.7,23.3,29.83,SW,234,0.0,0.0,58,0.00,,---,0.00,VWS V14.01,2013-04-25 13:50:00,
2013-04-25 06:56:00,37.0,24.1,29.83,SW,234,0.0,0.0,59,0.00,,---,0.00,VWS V14.01,2013-04-25 13:56:00,
2013-04-25 07:02:00,37.0,24.5,29.83,SW,235,0.0,0.0,60,0.00,,---,0.00,VWS V14.01,2013-04-25 14:02:00,
2013-04-25 07:08:00,37.0,24.5,29.83,SW,234,0.0,0.0,60,0.00,,---,0.00,VWS V14.01,2013-04-25 14:08:00,
2013-04-25 07:14:00,37.0,24.5,29.83,SW,234,0.0,0.0,60,0.00,,---,0.00,VWS V14.01,2013-04-25 14:14:00,
2013-04-25 07:21:00,37.4,24.8,29.83,SW,234,0.0,0.0,60,0.00,,---,0.00,VWS V14.01,2013-04-25 14:21:00,
2013-04-25 07:26:00,37.6,25.4,29.83,SW,234,0.0,0.0,61,0.00,,---,0.00,VWS V14.01,2013-04-25 14:26:00,
2013-04-25 07:32:00,37.9,25.7,29.83,SW,234,0.0,0.0,61,0.00,,---,0.00,VWS V14.01,2013-04-25 14:32:00,
2013-04-25 07:38:00,38.1,26.3,29.83,SW,234,0.0,0.0,62,0.00,,---,0.00,VWS V14.01,2013-04-25 14:38:00,
2013-04-25 07:44:00,38.5,26.6,29.83,SW,234,0.0,0.0,62,0.00,,---,0.00,VWS V14.01,2013-04-25 14:44:00,
2013-04-25 07:50:00,38.7,27.2,29.83,SW,234,0.0,0.0,63,0.00,,---,0.00,VWS V14.01,2013-04-25 14:50:00,
2013-04-25 07:56:00,39.2,27.7,29.83,SW,234,0.0,0.0,63,0.00,,---,0.00,VWS V14.01,2013-04-25 14:56:00,
2013-04-25 08:03:00,39.6,28.0,29.83,SW,234,0.0,0.0,63,0.00,,---,0.00,VWS V14.01,2013-04-25 15:03:00,
2013-04-25 08:08:00,39.9,28.8,29.83,SW,234,0.0,0.0,64,0.00,,---,0.00,VWS V14.01,2013-04-25 15:08:00,
2013-04-25 08:14:00,40.3,29.5,29.83,SW,234,0.0,0.0,65,0.00,,---,0.00,VWS V14.01,2013-04-25 15:14:00,
2013-04-25 08:20:00,40.6,29.8,29.83,SW,234,0.0,0.0,65,0.00,,---,0.00,VWS V14.01,2013-04-25 15:20:00,
2013-04-25 08:27:00,41.2,30.7,29.83,SW,234,0.0,0.0,66,0.00,,---,0.00,VWS V14.01,2013-04-25 15:27:00,
2013-04-25 08:32:00,41.7,31.2,29.83,SW,234,0.0,0.0,66,0.00,,---,0.00,VWS V14.01,2013-04-25 15:32:00,
2013-04-25 08:38:00,42.3,32.1,29.83,SW,234,0.0,0.0,67,0.00,,---,0.00,VWS V14.01,2013-04-25 15:38:00,
2013-04-25 08:44:00,43.0,32.4,29.83,SW,234,0.0,0.0,66,0.00,,---,0.00,VWS V14.01,2013-04-25 15:44:00,
2013-04-25 08:50:00,43.7,32.7,29.83,SW,234,0.0,0.0,65,0.00,,---,0.00,VWS V14.01,2013-04-25 15:50:00,
2013-04-25 08:56:00,44.4,30.6,29.83,SW,234,0.0,0.0,58,0.00,,---,0.00,VWS V14.01,2013-04-25 15:56:00,
2013-04-25 09:02:00,45.5,27.0,29.83,SW,234,0.0,0.0,48,0.00,,---,0.00,VWS V14.01,2013-04-25 16:02:00,
2013-04-25 09:08:00,46.8,25.5,29.83,SW,234,0.0,0.0,43,0.00,,---,0.00,VWS V14.01,2013-04-25 16:08:00,
2013-04-25 09:14:00,47.8,22.9,29.83,SW,234,0.0,0.0,37,0.00,,---,0.00,VWS V14.01,2013-04-25 16:14:00,
2013-04-25 09:20:00,48.9,19.6,29.83,SW,234,0.0,0.0,31,0.00,,---,0.00,VWS V14.01,2013-04-25 16:20:00,
2013-04-25 09:27:00,50.0,22.8,29.83,SW,232,0.0,0.0,34,0.00,,---,0.00,VWS V14.01,2013-04-25 16:27:00,
2013-04-25 09:32:00,50.7,20.4,29.83,SW,232,0.0,0.0,30,0.00,,---,0.00,VWS V14.01,2013-04-25 16:32:00,
2013-04-25 09:38:00,52.2,20.9,29.83,SW,214,0.0,0.0,29,0.00,,---,0.00,VWS V14.01,2013-04-25 16:38:00,
2013-04-25 09:44:00,52.7,22.2,29.83,SW,214,0.0,0.0,30,0.00,,---,0.00,VWS V14.01,2013-04-25 16:44:00,
2013-04-25 09:51:00,53.2,21.0,29.83,SW,214,0.0,0.0,28,0.00,,---,0.00,VWS V14.01,2013-04-25 16:51:00,
2013-04-25 09:56:00,54.5,22.1,29.83,SW,214,0.0,0.0,28,0.00,,---,0.00,VWS V14.01,2013-04-25 16:56:00,
2013-04-25 10:02:00,55.6,22.1,29.83,SSW,195,0.0,0.0,27,0.00,,---,0.00,VWS V14.01,2013-04-25 17:02:00,
2013-04-25 10:09:00,56.3,21.9,29.83,SW,229,0.0,0.0,26,0.00,,---,0.00,VWS V14.01,2013-04-25 17:09:00,
2013-04-25 10:14:00,56.8,22.3,29.83,SSE,154,4.9,4.9,26,0.00,,---,0.00,VWS V14.01,2013-04-25 17:14:00,
2013-04-25 10:20:00,57.9,23.3,29.83,NW,312,0.0,0.0,26,0.00,,---,0.00,VWS V14.01,2013-04-25 17:20:00,
2013-04-25 10:26:00,58.6,22.9,29.83,North,6,0.0,0.0,25,0.00,,---,0.00,VWS V14.01,2013-04-25 17:26:00,
2013-04-25 10:32:00,58.6,22.9,29.83,ENE,75,0.0,0.0,25,0.00,,---,0.00,VWS V14.01,2013-04-25 17:32:00,
2013-04-25 10:38:00,59.2,22.4,29.83,SSE,157,2.2,3.1,24,0.00,,---,0.00,VWS V14.01,2013-04-25 17:38:00,
2013-04-25 10:44:00,59.5,22.7,29.83,ESE,105,3.1,5.8,24,0.00,,---,0.00,VWS V14.01,2013-04-25 17:44:00,
2013-04-25 10:50:00,60.4,21.4,29.83,SW,232,2.7,3.6,22,0.00,,---,0.00,VWS V14.01,2013-04-25 17:50:00,
2013-04-25 10:56:00,61.2,24.1,29.83,East,91,0.0,5.8,24,0.00,,---,0.00,VWS V14.01,2013-04-25 17:56:00,
2013-04-25 11:02:00,62.2,21.9,29.83,WNW,290,0.0,3.1,21,0.00,,---,0.00,VWS V14.01,2013-04-25 18:02:00,
2013-04-25 11:08:00,63.3,25.9,29.83,NNW,348,2.2,4.0,24,0.00,,---,0.00,VWS V14.01,2013-04-25 18:08:00,
2013-04-25 11:14:00,63.9,23.2,29.83,SSW,196,0.0,0.0,21,0.00,,---,0.00,VWS V14.01,2013-04-25 18:14:00,
2013-04-25 11:20:00,64.0,23.3,29.83,West,280,2.2,3.1,21,0.00,,---,0.00,VWS V14.01,2013-04-25 18:20:00,
2013-04-25 11:26:00,64.9,22.9,29.83,SE,135,0.0,2.7,20,0.00,,---,0.00,VWS V14.01,2013-04-25 18:26:00,
2013-04-25 11:33:00,64.9,26.3,29.83,NW,326,0.0,0.0,23,0.00,,---,0.00,VWS V14.01,2013-04-25 18:33:00,
2013-04-25 11:38:00,65.1,23.1,29.83,NW,309,0.0,3.6,20,0.00,,---,0.00,VWS V14.01,2013-04-25 18:38:00,
2013-04-25 11:44:00,65.8,21.2,29.83,NNW,334,0.0,0.0,18,0.00,,---,0.00,VWS V14.01,2013-04-25 18:44:00,
2013-04-25 11:50:00,66.2,24.0,29.83,WSW,256,2.2,4.0,20,0.00,,---,0.00,VWS V14.01,2013-04-25 18:50:00,
2013-04-25 11:57:00,66.6,24.3,29.83,WSW,256,0.0,0.0,20,0.00,,---,0.00,VWS V14.01,2013-04-25 18:57:00,
2013-04-25 12:02:00,66.9,20.7,29.83,East,97,0.0,4.0,17,0.00,,---,0.00,VWS V14.01,2013-04-25 19:02:00,
2013-04-25 12:08:00,66.7,24.4,29.83,WSW,258,3.6,3.6,20,0.00,,---,0.00,VWS V14.01,2013-04-25 19:08:00,
2013-04-25 12:14:00,67.3,21.0,29.83,SE,137,2.7,3.6,17,0.00,,---,0.00,VWS V14.01,2013-04-25 19:14:00,
2013-04-25 12:20:00,67.3,21.0,29.83,West,262,3.6,3.6,17,0.00,,---,0.00,VWS V14.01,2013-04-25 19:20:00,
2013-04-25 12:26:00,68.2,25.6,29.83,West,271,0.0,4.0,20,0.00,,---,0.00,VWS V14.01,2013-04-25 19:26:00,
2013-04-25 12:32:00,68.7,22.2,29.83,NW,323,0.0,0.0,17,0.00,,---,0.00,VWS V14.01,2013-04-25 19:32:00,
2013-04-25 12:38:00,69.4,22.8,29.83,WSW,246,0.0,0.0,17,0.00,,---,0.00,VWS V14.01,2013-04-25 19:38:00,
2013-04-25 12:44:00,69.1,22.5,29.83,WSW,246,0.0,0.0,17,0.00,,---,0.00,VWS V14.01,2013-04-25 19:44:00,
2013-04-25 12:50:00,69.8,23.1,29.83,ENE,71,0.0,3.1,17,0.00,,---,0.00,VWS V14.01,2013-04-25 19:50:00,
2013-04-25 12:56:00,69.8,23.1,29.83,NW,304,0.0,0.0,17,0.00,,---,0.00,VWS V14.01,2013-04-25 19:56:00,
2013-04-25 13:02:00,70.9,23.9,29.83,West,265,2.2,3.6,17,0.00,,---,0.00,VWS V14.01,2013-04-25 20:02:00,
2013-04-25 13:08:00,71.2,24.2,29.83,SE,140,0.0,3.6,17,0.00,,---,0.00,VWS V14.01,2013-04-25 20:08:00,
2013-04-25 13:14:00,71.1,24.1,29.83,West,259,2.2,4.0,17,0.00,,---,0.00,VWS V14.01,2013-04-25 20:14:00,
2013-04-25 13:20:00,70.7,23.8,29.83,NW,310,0.0,3.1,17,0.00,,---,0.00,VWS V14.01,2013-04-25 20:20:00,
2013-04-25 13:26:00,71.4,24.4,29.83,West,262,4.0,6.3,17,0.00,,---,0.00,VWS V14.01,2013-04-25 20:26:00,
2013-04-25 13:32:00,70.7,23.8,29.83,West,263,0.0,0.0,17,0.00,,---,0.00,VWS V14.01,2013-04-25 20:32:00,
2013-04-25 13:39:00,71.2,24.2,29.83,West,269,2.7,3.6,17,0.00,,---,0.00,VWS V14.01,2013-04-25 20:39:00,
2013-04-25 13:44:00,72.0,23.4,29.83,WSW,258,0.0,2.2,16,0.00,,---,0.00,VWS V14.01,2013-04-25 20:44:00,
2013-04-25 13:50:00,71.4,24.4,29.83,West,260,0.0,0.0,17,0.00,,---,0.00,VWS V14.01,2013-04-25 20:50:00,
2013-04-25 13:56:00,72.1,23.5,29.83,WSW,255,3.6,5.4,16,0.00,,---,0.00,VWS V14.01,2013-04-25 20:56:00,
2013-04-25 14:02:00,73.4,24.5,29.83,NW,316,3.6,4.0,16,0.00,,---,0.00,VWS V14.01,2013-04-25 21:02:00,
2013-04-25 14:08:00,73.0,24.2,29.83,SW,214,0.0,2.7,16,0.00,,---,0.00,VWS V14.01,2013-04-25 21:08:00,
2013-04-25 14:14:00,72.9,24.1,29.83,SW,233,2.7,2.7,16,0.00,,---,0.00,VWS V14.01,2013-04-25 21:14:00,
2013-04-25 14:20:00,73.0,24.2,29.83,West,281,0.0,4.0,16,0.00,,---,0.00,VWS V14.01,2013-04-25 21:20:00,
2013-04-25 14:26:00,73.4,24.5,29.83,SSE,148,2.7,3.6,16,0.00,,---,0.00,VWS V14.01,2013-04-25 21:26:00,
2013-04-25 14:32:00,73.8,24.8,29.83,WSW,248,0.0,2.2,16,0.00,,---,0.00,VWS V14.01,2013-04-25 21:32:00,
2013-04-25 14:38:00,72.7,23.9,29.83,WSW,251,2.7,3.1,16,0.00,,---,0.00,VWS V14.01,2013-04-25 21:38:00,
2013-04-25 14:44:00,71.8,23.2,29.83,WNW,295,2.7,3.1,16,0.00,,---,0.00,VWS V14.01,2013-04-25 21:44:00,
2013-04-25 14:50:00,73.2,24.4,29.83,West,268,3.6,4.0,16,0.00,,---,0.00,VWS V14.01,2013-04-25 21:50:00,
2013-04-25 14:56:00,73.2,24.4,29.83,West,271,3.1,4.0,16,0.00,,---,0.00,VWS V14.01,2013-04-25 21:56:00,
2013-04-25 15:02:00,72.9,24.1,29.83,NNW,339,2.7,2.7,16,0.00,,---,0.00,VWS V14.01,2013-04-25 22:02:00,
2013-04-25 15:08:00,71.6,23.1,29.83,NNW,331,0.0,3.1,16,0.00,,---,0.00,VWS V14.01,2013-04-25 22:08:00,
2013-04-25 15:14:00,72.1,23.5,29.83,NW,319,3.6,3.6,16,0.00,,---,0.00,VWS V14.01,2013-04-25 22:14:00,
2013-04-25 15:20:00,72.9,24.1,29.83,SW,222,3.6,4.9,16,0.00,,---,0.00,VWS V14.01,2013-04-25 22:20:00,
2013-04-25 15:26:00,73.8,24.8,29.83,WSW,242,2.7,2.7,16,0.00,,---,0.00,VWS V14.01,2013-04-25 22:26:00,
2013-04-25 15:32:00,73.0,21.1,29.83,NW,308,0.0,0.0,14,0.00,,---,0.00,VWS V14.01,2013-04-25 22:32:00,
2013-04-25 15:38:00,73.4,24.5,29.83,SE,143,0.0,5.4,16,0.00,,---,0.00,VWS V14.01,2013-04-25 22:38:00,
2013-04-25 15:45:00,73.2,21.2,29.83,West,281,3.1,5.8,14,0.00,,---,0.00,VWS V14.01,2013-04-25 22:45:00,
2013-04-25 15:50:00,73.0,21.1,29.83,WNW,293,0.0,0.0,14,0.00,,---,0.00,VWS V14.01,2013-04-25 22:50:00,
2013-04-25 15:56:00,73.6,24.7,29.83,WSW,245,2.7,5.8,16,0.00,,---,0.00,VWS V14.01,2013-04-25 22:56:00,
2013-04-25 16:02:00,73.8,24.8,29.83,North,1,0.0,0.0,16,0.00,,---,0.00,VWS V14.01,2013-04-25 23:02:00,
2013-04-25 16:08:00,73.6,24.7,29.83,West,271,0.0,4.0,16,0.00,,---,0.00,VWS V14.01,2013-04-25 23:08:00,
2013-04-25 16:14:00,73.4,24.5,29.83,NNW,344,0.0,2.2,16,0.00,,---,0.00,VWS V14.01,2013-04-25 23:14:00,
2013-04-25 16:20:00,73.0,24.2,29.83,West,269,3.6,4.0,16,0.00,,---,0.00,VWS V14.01,2013-04-25 23:20:00,
2013-04-25 16:27:00,73.2,24.4,29.83,NNE,23,0.0,0.0,16,0.00,,---,0.00,VWS V14.01,2013-04-25 23:27:00,
2013-04-25 16:32:00,73.4,24.5,29.83,NW,318,0.0,0.0,16,0.00,,---,0.00,VWS V14.01,2013-04-25 23:32:00,
2013-04-25 16:38:00,73.4,24.5,29.83,WSW,238,0.0,2.7,16,0.00,,---,0.00,VWS V14.01,2013-04-25 23:38:00,
2013-04-25 16:44:00,73.0,24.2,29.83,South,173,2.2,3.6,16,0.00,,---,0.00,VWS V14.01,2013-04-25 23:44:00,
2013-04-25 16:51:00,73.2,24.4,29.83,WSW,257,0.0,0.0,16,0.00,,---,0.00,VWS V14.01,2013-04-25 23:51:00,
2013-04-25 16:56:00,72.0,20.2,29.83,SW,226,0.0,0.0,14,0.00,,---,0.00,VWS V14.01,2013-04-25 23:56:00,
2013-04-25 17:02:00,71.8,23.2,29.83,West,278,0.0,0.0,16,0.00,,---,0.00,VWS V14.01,2013-04-26 00:02:00,
2013-04-25 17:08:00,71.6,23.1,29.83,South,170,2.2,2.7,16,0.00,,---,0.00,VWS V14.01,2013-04-26 00:08:00,
2013-04-25 17:14:00,70.9,23.9,29.83,NE,44,0.0,0.0,17,0.00,,---,0.00,VWS V14.01,2013-04-26 00:14:00,
2013-04-25 17:20:00,70.0,23.2,29.83,North,9,0.0,5.8,17,0.00,,---,0.00,VWS V14.01,2013-04-26 00:20:00,
2013-04-25 17:26:00,69.6,22.9,29.83,North,9,0.0,0.0,17,0.00,,---,0.00,VWS V14.01,2013-04-26 00:26:00,
2013-04-25 17:33:00,69.1,22.5,29.83,ENE,74,0.0,0.0,17,0.00,,---,0.00,VWS V14.01,2013-04-26 00:33:00,
2013-04-25 17:38:00,68.9,22.3,29.83,ENE,74,0.0,0.0,17,0.00,,---,0.00,VWS V14.01,2013-04-26 00:38:00,
2013-04-25 17:44:00,68.4,21.9,29.83,SE,128,0.0,0.0,17,0.00,,---,0.00,VWS V14.01,2013-04-26 00:44:00,
2013-04-25 17:50:00,68.2,21.7,29.83,SE,128,0.0,0.0,17,0.00,,---,0.00,VWS V14.01,2013-04-26 00:50:00,
2013-04-25 17:56:00,67.8,21.5,29.83,NNE,31,0.0,0.0,17,0.00,,---,0.00,VWS V14.01,2013-04-26 00:56:00,
2013-04-25 18:02:00,67.8,21.5,29.83,NNE,29,0.0,0.0,17,0.00,,---,0.00,VWS V14.01,2013-04-26 01:02:00,
2013-04-25 18:08:00,67.5,21.2,29.83,NNE,29,0.0,0.0,17,0.00,,---,0.00,VWS V14.01,2013-04-26 01:08:00,
2013-04-25 18:14:00,67.3,21.0,29.83,NNE,29,0.0,0.0,17,0.00,,---,0.00,VWS V14.01,2013-04-26 01:14:00,
2013-04-25 18:20:00,67.1,20.9,29.83,NNE,30,0.0,0.0,17,0.00,,---,0.00,VWS V14.01,2013-04-26 01:20:00,
2013-04-25 18:26:00,67.1,20.9,29.83,NNE,30,0.0,0.0,17,0.00,,---,0.00,VWS V14.01,2013-04-26 01:26:00,
2013-04-25 18:32:00,66.7,20.6,29.83,NNE,31,0.0,0.0,17,0.00,,---,0.00,VWS V14.01,2013-04-26 01:32:00,
2013-04-25 18:38:00,66.6,20.4,29.83,NNE,31,0.0,0.0,17,0.00,,---,0.00,VWS V14.01,2013-04-26 01:38:00,
2013-04-25 18:44:00,66.2,20.1,29.83,NNE,31,0.0,0.0,17,0.00,,---,0.00,VWS V14.01,2013-04-26 01:44:00,
2013-04-25 18:50:00,65.8,21.2,29.83,NNE,31,0.0,0.0,18,0.00,,---,0.00,VWS V14.01,2013-04-26 01:50:00,
2013-04-25 18:56:00,65.7,21.0,29.83,NNE,31,0.0,0.0,18,0.00,,---,0.00,VWS V14.01,2013-04-26 01:56:00,
2013-04-25 19:02:00,65.3,20.7,29.83,NNE,31,0.0,0.0,18,0.00,,---,0.00,VWS V14.01,2013-04-26 02:02:00,
2013-04-25 19:08:00,64.8,20.3,29.83,NNE,31,0.0,0.0,18,0.00,,---,0.00,VWS V14.01,2013-04-26 02:08:00,
2013-04-25 19:14:00,64.2,19.9,29.83,NNE,31,0.0,0.0,18,0.00,,---,0.00,VWS V14.01,2013-04-26 02:14:00,
2013-04-25 19:20:00,63.7,19.4,29.83,NNE,31,0.0,0.0,18,0.00,,---,0.00,VWS V14.01,2013-04-26 02:20:00,
2013-04-25 19:26:00,63.3,19.1,29.83,NNE,31,0.0,0.0,18,0.00,,---,0.00,VWS V14.01,2013-04-26 02:26:00,
2013-04-25 19:32:00,62.6,22.1,29.83,NNE,31,0.0,0.0,21,0.00,,---,0.00,VWS V14.01,2013-04-26 02:32:00,
2013-04-25 19:38:00,62.1,24.9,29.83,NNE,31,0.0,0.0,24,0.00,,---,0.00,VWS V14.01,2013-04-26 02:38:00,
2013-04-25 19:44:00,61.7,24.6,29.83,NNE,31,0.0,0.0,24,0.00,,---,0.00,VWS V14.01,2013-04-26 02:44:00,
2013-04-25 19:50:00,61.2,24.1,29.83,NNE,31,0.0,0.0,24,0.00,,---,0.00,VWS V14.01,2013-04-26 02:50:00,
2013-04-25 19:56:00,60.8,23.8,29.83,NNE,31,0.0,0.0,24,0.00,,---,0.00,VWS V14.01,2013-04-26 02:56:00,
2013-04-25 20:02:00,60.4,24.5,29.83,NNE,31,0.0,0.0,25,0.00,,---,0.00,VWS V14.01,2013-04-26 03:02:00,
2013-04-25 20:08:00,59.9,24.0,29.83,NNE,31,0.0,0.0,25,0.00,,---,0.00,VWS V14.01,2013-04-26 03:08:00,
2013-04-25 20:14:00,59.4,23.6,29.83,NNE,31,0.0,0.0,25,0.00,,---,0.00,VWS V14.01,2013-04-26 03:14:00,
2013-04-25 20:20:00,59.0,26.0,29.83,NNE,31,0.0,0.0,28,0.00,,---,0.00,VWS V14.01,2013-04-26 03:20:00,
2013-04-25 20:27:00,58.5,25.5,29.83,NNE,31,0.0,0.0,28,0.00,,---,0.00,VWS V14.01,2013-04-26 03:27:00,
2013-04-25 20:32:00,58.1,25.2,29.83,NNE,31,0.0,0.0,28,0.00,,---,0.00,VWS V14.01,2013-04-26 03:32:00,
2013-04-25 20:39:00,57.7,24.9,29.85,NNE,31,0.0,0.0,28,0.00,,---,0.00,VWS V14.01,2013-04-26 03:39:00,
2013-04-25 20:44:00,57.2,26.1,29.85,NNE,31,0.0,0.0,30,0.00,,---,0.00,VWS V14.01,2013-04-26 03:44:00,
2013-04-25 20:50:00,56.8,25.8,29.85,NNE,31,0.0,0.0,30,0.00,,---,0.00,VWS V14.01,2013-04-26 03:50:00,
2013-04-25 20:56:00,56.5,27.0,29.85,NNE,31,0.0,0.0,32,0.00,,---,0.00,VWS V14.01,2013-04-26 03:56:00,
2013-04-25 21:03:00,55.9,26.5,29.85,NNE,31,0.0,0.0,32,0.00,,---,0.00,VWS V14.01,2013-04-26 04:03:00,
2013-04-25 21:07:00,55.8,26.4,29.85,NNE,31,0.0,0.0,32,0.00,,---,0.00,VWS V14.01,2013-04-26 04:07:00,
2013-04-25 21:08:00,55.6,26.2,29.85,NNE,31,0.0,0.0,32,0.00,,---,0.00,VWS V14.01,2013-04-26 04:08:00,
2013-04-25 21:10:00,55.4,27.5,29.85,NNE,31,0.0,0.0,34,0.00,,---,0.00,VWS V14.01,2013-04-26 04:10:00,
2013-04-25 21:12:00,55.4,27.5,29.85,NNE,31,0.0,0.0,34,0.00,,---,0.00,VWS V14.01,2013-04-26 04:12:00,
2013-04-25 21:18:00,55.0,28.6,29.85,NNE,31,0.0,0.0,36,0.00,,---,0.00,VWS V14.01,2013-04-26 04:18:00,
2013-04-25 21:24:00,54.7,28.3,29.85,NNE,31,0.0,0.0,36,0.00,,---,0.00,VWS V14.01,2013-04-26 04:24:00,
2013-04-25 21:30:00,54.5,28.1,29.85,NNE,31,0.0,0.0,36,0.00,,---,0.00,VWS V14.01,2013-04-26 04:30:00,
2013-04-25 21:36:00,54.1,27.8,29.85,NNE,31,0.0,0.0,36,0.00,,---,0.00,VWS V14.01,2013-04-26 04:36:00,
2013-04-25 21:42:00,53.8,26.8,29.85,NNE,31,0.0,0.0,35,0.00,,---,0.00,VWS V14.01,2013-04-26 04:42:00,
2013-04-25 21:48:00,53.2,27.0,29.85,NNE,31,0.0,0.0,36,0.00,,---,0.00,VWS V14.01,2013-04-26 04:48:00,
2013-04-25 21:54:00,53.1,27.5,29.85,NNE,31,0.0,0.0,37,0.00,,---,0.00,VWS V14.01,2013-04-26 04:54:00,
2013-04-25 22:00:00,52.7,27.2,29.85,NNE,31,0.0,0.0,37,0.00,,---,0.00,VWS V14.01,2013-04-26 05:00:00,
2013-04-25 22:06:00,52.3,26.9,29.85,NNE,31,0.0,0.0,37,0.00,,---,0.00,VWS V14.01,2013-04-26 05:06:00,
2013-04-25 22:12:00,52.2,26.7,29.85,NNE,31,0.0,0.0,37,0.00,,---,0.00,VWS V14.01,2013-04-26 05:12:00,
2013-04-25 22:18:00,51.8,26.4,29.85,NNE,31,0.0,0.0,37,0.00,,---,0.00,VWS V14.01,2013-04-26 05:18:00,
2013-04-25 22:24:00,51.6,26.9,29.88,NNE,31,0.0,0.0,38,0.00,,---,0.00,VWS V14.01,2013-04-26 05:24:00,
2013-04-25 22:30:00,51.4,27.9,29.88,NNE,31,0.0,0.0,40,0.00,,---,0.00,VWS V14.01,2013-04-26 05:30:00,
2013-04-25 22:36:00,51.1,28.8,29.88,NNE,31,0.0,0.0,42,0.00,,---,0.00,VWS V14.01,2013-04-26 05:36:00,
2013-04-25 22:42:00,50.9,28.6,29.88,NNE,31,0.0,0.0,42,0.00,,---,0.00,VWS V14.01,2013-04-26 05:42:00,
2013-04-25 22:48:00,50.5,28.3,29.88,NNE,31,0.0,0.0,42,0.00,,---,0.00,VWS V14.01,2013-04-26 05:48:00,
2013-04-25 22:55:00,50.4,28.2,29.88,NNE,31,0.0,0.0,42,0.00,,---,0.00,VWS V14.01,2013-04-26 05:55:00,
2013-04-25 23:00:00,50.4,28.2,29.88,NNE,31,0.0,0.0,42,0.00,,---,0.00,VWS V14.01,2013-04-26 06:00:00,
2013-04-25 23:06:00,50.2,27.4,29.88,NNE,31,0.0,0.0,41,0.00,,---,0.00,VWS V14.01,2013-04-26 06:06:00,
2013-04-25 23:12:00,49.8,27.7,29.88,NNE,31,0.0,0.0,42,0.00,,---,0.00,VWS V14.01,2013-04-26 06:12:00,
2013-04-25 23:18:00,49.5,27.3,29.88,NNE,31,0.0,0.0,42,0.00,,---,0.00,VWS V14.01,2013-04-26 06:18:00,
2013-04-25 23:24:00,49.3,28.3,29.91,NNE,31,0.0,0.0,44,0.00,,---,0.00,VWS V14.01,2013-04-26 06:24:00,
2013-04-25 23:30:00,49.1,28.1,29.91,NNE,31,0.0,0.0,44,0.00,,---,0.00,VWS V14.01,2013-04-26 06:30:00,
2013-04-25 23:36:00,48.9,27.4,29.91,NNE,31,0.0,0.0,43,0.00,,---,0.00,VWS V14.01,2013-04-26 06:36:00,
2013-04-25 23:43:00,48.9,28.0,29.91,NNE,31,0.0,0.0,44,0.00,,---,0.00,VWS V14.01,2013-04-26 06:43:00,
2013-04-25 23:48:00,48.7,27.8,29.91,NNE,31,0.0,0.0,44,0.00,,---,0.00,VWS V14.01,2013-04-26 06:48:00,
2013-04-25 23:54:00,48.6,28.7,29.91,NNE,31,0.0,0.0,46,0.00,,---,0.00,VWS V14.01,2013-04-26 06:54:00,